Погода Советская Гавань

Погода Советская Гавань : погода сейчас, прогноз погоды и архив. Всё, что Вы хотите узнать о погоде Советская Гавань!

Поиск расширенной информации на нашем сайте:

Другие новости

Новости СМИ2

Главная страница сайта

Новости сайта

03.07.2017

Напоминаем, что на нашем специализированном сайте Метеоцентр.Азия вы можете получить высокодетализированные автоматические прогнозы погоды по пунктам России, СНГ и мира в авиационном формате (включающие направление и скорость ветра, видимость, явления погоды, количество и форму облачности, нижнюю и верхнюю границу облачности).


Погода Советская Гавань - сегодня

Время (UTC), дата Ветер
(°,м/с) 
Видим.   Явления Облачность Т
(°С)
Тd
(°С)
f(%) Тe
(°С)
Pmin
(гПа)
dP
(гПа)
Po
(мм)
O2
(г/м3)
Тmin Tmax R s Состояние
почвы
06 17.02.18 050 (СВ) 20000 м    10/1 600 м средняя, верхняя 
[Cu hum|Ac trans|Cc]
-11.5 -16.6 66 -13  1008.3  -0.5  754  319           
12 17.02.18 230 (ЮЗ) 45000 м    6/0 средняя, верхняя 
[Ac trans|Ci fib]
-17.4 -19.4 84 -20  1012.9  2.3  758  328           
15 17.02.18 тихо ()   50000 м    ясно 
-21.8 -23.8 84 -22  1013.4  0.4  758  334           
18 17.02.18 250 (З) 50000 м    3/0 верхняя 
[Ci fib]
-16.8 -23.5 56 -19  1014.3  759  327           
00 18.02.18 270 (З) 20000 м    10/0 средняя, верхняя 
[Ac lent|Ci fib]
-13.7 -22.9 46 -16  1016.5  0.7  760  324           
03 18.02.18 320 (СЗ) 20000 м    ясно 
-9.7 -20.9 40 -14  1015.3  -1.1  759  319           
06 18.02.18 090 (В) 20000 м    3/0 верхняя 
[Ci fib]
-10.6 -17.7 56 -12  1015.1  -0.3  759  320           
09 18.02.18 тихо ()   27000 м    ясно 
-13.9 -17.7 73 -14  1016.3  1.1  760  324    -7.5       
12 18.02.18 тихо ()   21000 м    ясно 
-18.3 -20.4 84 -18  1016.5  0.2  760  330           
15 18.02.18 230 (ЮЗ) 28000 м    ясно 
-18.6 -21.2 80 -21  1015.7  -0.7  760  330           
18 18.02.18 230 (ЮЗ) 24000 м    ясно 
-18.7 -23.4 66 -21  1015.3  -0.5  759  330           
00 19.02.18 230 (ЮЗ) 20000 м    10/0 средняя, верхняя 
[Ac trans|Ci fib]
-15.9 -23.8 51 -18  1013  -1.1  758  326           
03 19.02.18 090 (В) 20000 м    10/0 средняя, верхняя 
[Ac trans|Ci fib]
-10.2 -20.7 42 -12  1010.5  -2.5  756  318           
06 19.02.18 140 (ЮВ) 20000 м    10/4 600 м средняя, верхняя 
[Sc|Ac trans|Ci fib]
-9.9 -19.1 47 -12  1009  -1.5  755  317           
12 19.02.18 290 (З) 15000 м  слаб. ливневой снег  10/6 600 м кучево-дожд., средняя 
[Cb cap|As op]
-13 -15.5 81 -15  1010.4  0.4  756  321           
15 19.02.18 270 (З) 21000 м  {ливн. осадки}  10/0 средняя, верхняя 
[As op|Ci fib]
-13.6 -19 64 -16  1009.9  -0.5  755  322           
18 19.02.18 тихо ()   30000 м  {ливн. осадки}  10/0 верхняя 
[Ci fib]
-17.6 -22 68 -18  1009.4  -0.6  755  327           
00 20.02.18 250 (З) 20000 м    10/0 верхняя 
[Cc]
-14.3 -21.8 53 -16  1008.9  -0.1  755  322           
03 20.02.18 020 (С) 20000 м    6/6 600 м 
[Cu hum]
-9.2 -21.1 37 -11  1007.4  -1.5  753  316           
06 20.02.18 090 (В) 20000 м  слаб. ливневой снег  10/6 600 м кучево-дожд., верхняя 
[Cb cap|Ci fib]
-10.6 -18.7 51 -12  1007.3  753  317           
12 20.02.18 270 (З) 25000 м  {ливн. осадки}  6/3 600 м верхняя 
[Sc|Ci fib]
-14.9 -20.1 65 -17  1010.4  1.2  756  324           
15 20.02.18 230 (ЮЗ) 24000 м    3/3 600 м 
[Sc]
-16 -24 50 -18  1011.1  0.7  756  325           
18 20.02.18 230 (ЮЗ) 26000 м    3/3 600 м 
[Sc]
-77 -24.8 100 -91  1011.2  0.1  756  427           
03 21.02.18 тихо ()   20000 м    10/3 600 м средняя, верхняя 
[Cu hum|Ac lent|Cs]
-10.4 -23.5 33 -10  1010.5  -1.4  756  318           
06 21.02.18 090 (В) 20000 м    10/4 600 м кучево-дожд., средняя, верхняя 
[Cb cap|Ac lent|Cs]
-10.9 -20.7 44 -13  1010.3  -0.2  756  319           
Время (UTC), дата Ветер
(°,м/с) 
Видим.   Явления Облачность Т
(°С)
Тd
(°С)
f(%) Тe
(°С)
Pmin
(гПа)
dP
(гПа)
Po
(мм)
O2
(г/м3)
Тmin Tmax R s Состояние
почвы

Для получения пояснительной информации подведите курсор к названию столбца.

ПОГОДА Советская Гавань - архив

Всё, что Вы хотите узнать о погоде Советская Гавань - удобно и подробно!

Выберите нужную дату (начиная с 1 января 2015* года) и нажмите кнопку "Найти".
Будут отображены архивные сводки погоды по пункту Советская Гавань, начиная с указанной даты.


Отображать данные в формате CSV (для использования в таблицах Excel)


Внимание! Наш архив погоды предназначен исключительно для личного некоммерческого использования в познавательных целях. Если Вам необходимы официальные справки о состоянии погоды (для производственных, юридических, коммерческих и т.п. целей), обращайтесь в органы Росгидромета.

*Примечание: данная дата относится к архиву по метеостанциям СССР (Россия, СНГ, Балтия).
Архив по метеостанциям Зарубежной Европы и Азии (кроме Китая) хранится 10 дней, по другим регионам земного шара (Китай, Африка, Америка, Австралия, Океания) - 1 день.

Советская Гавань - район местоположения метеостанции


Название, широта, долгота, высота метеостанции:
Советская Гавань 49°ш. 140.3°д. 22 м над ур. моря [Российская Федерация]

Дополнительная информация

В oтличие oт бoльшинства пoгoдных сайтoв мы публикуем пoдрoбную метеoинфoрмацию в детальнoм прoфессиoнальнoм фoрмате.

Характеристики температуры и влажнoсти вoздуха измеряются на высoте 2 м в тени вдали oт зданий и деревьев.
Скoрoсть ветра измеряется на высoте 10 м (на урoвне рoста челoвека скoрoсть ветра ниже в 1.5-2 раза). Если метеoстанция нахoдится в гoрoде или в лесу, тo скoрoсть ветра занижена на 2-4 м/с пo сравнению с oткрытым местoм. Скoрoсть ветра над акватoриями крупных рек и oзёр, а также на вершинах хoлмoв на 2-5 м/с выше, чем в oбычных услoвиях.
Атмoсфернoе давление в разных тoчках местнoсти мoжет значительнo oтличаться oт давления на метеoстанции, в зависимoсти oт услoвий рельефа (при пoдъёме на 10 м давление пoнижается примернo на 1 мм рт.ст.).